www.pogodaiklimat.ru

Погода и климат >> Архив погоды >> Перу >> Trujillo


ПОГОДА в Trujillo

  • Прогноз погоды в Trujillo
  • Монитор погоды в Trujillo
  • Климат города

АРХИВ ПОГОДЫ в Trujillo

Время (UTC), дата Ветер
(напр.,м/с)
 
Видим.   Явления Облачность Т
(С)
Тd
(С)
f
(%)
Тe
(С)
Тes
(С)
Комфортность P
(гПа)
Po
(гПа)
Тmin
(С)
Tmax
(С)
R
(мм)
R24
(мм)
S
(см)
00 14.11 ЮВ 4 10 км 10/10 630 м
[St]
+19.6 +16.7 83 +22 +22 комфорт 1013.3 1010.5 +21.5
03 14.11 ЮВ 4 8000 м дымка 10/10 660 м
[St]
+19.2 +16.7 85 +21 +21 комфорт 1014.2 1011.4
06 14.11 ЮВ 3 8000 м дымка 10/10 660 м
[St]
+18.9 +16.7 87 +20 +20 1013.7 1010.9
09 14.11 ЮВ 3 8000 м дымка 10/10 540 м
[St]
+18.6 +17.0 90 +20 +20 1013.4 1010.6
12 14.11 ЮВ 2 6000 м дымка 9/9 540 м
[St]
+18.6 +17.0 90 +20 +20 1013.8 1011.0 +18.3
15 14.11 Ю 4 8000 м мгла 9/9 570 м
[St]
+20.7 +16.4 76 +24 +25 комфорт 1014.9 1012.1
18 14.11 Ю 6 7000 м мгла 1/1 1200 м
[Sc]
+21.9 +17.3 75 +26 +34 душно 1013.6 1010.8
21 14.11 Ю 5 8000 м мгла ясно +21.4 +17.9 80 +26 +29 душно 1011.7 1008.9
00 15.11 ЮВ 4 10 км 5/0
[Ac trans]
+19.4 +17.0 86 +21 +21 комфорт 1013.4 1010.6 +22.3
03 15.11 ЮВ 4 10 км 3/0
[Ac trans]
+19.1 +16.6 85 +21 +21 комфорт 1014.4 1011.6
06 15.11 ЮВ 3 8000 м дымка 6/0
[Ac trans]
+18.8 +16.6 87 +20 +20 1013.6 1010.8
09 15.11 ЮВ 3 7000 м дымка 10/8 240 м
[St]
+18.5 +16.9 90 +19 +19 1012.5 1009.7
12 15.11 ЮВ 3 6000 м дымка 9/9 210 м
[St]
+18.4 +17.1 92 +19 +19 1013.8 1011.0 +18.2
15 15.11 Ю 5 8000 м мгла 4/4 660 м
[Sc]
+20.5 +16.8 79 +24 +29 комфорт 1015.0 1012.2
18 15.11 Ю 5 9000 м мгла 3/3 660 м
[Sc]
+21.6 +17.3 77 +26 +33 душно 1013.7 1010.9
21 15.11 Ю 5 10 км 4/4 600 м
[Sc]
+21.7 +17.8 78 +26 +28 душно 1012.0 1009.2
00 16.11 ЮВ 4 10 км 10/10 270 м
[St]
+19.7 +17.5 87 +22 +22 комфорт 1012.6 1009.8 +22.4
03 16.11 ЮВ 4 8000 м дымка 10/10 630 м
[St]
+19.4 +16.9 85 +21 +21 комфорт 1014.7 1011.9
06 16.11 ЮВ 4 8000 м дымка 10/10 630 м
[St]
+18.9 +16.5 86 +20 +20 1013.0 1010.2
09 16.11 ЮВ 3 7000 м дымка 10/10 700 м
[St]
+18.4 +16.8 90 +19 +19 1012.0 1009.2
12 16.11 ЮВ 4 7000 м дымка 10/10 330 м
[St]
+18.6 +16.8 89 +19 +19 1013.6 1010.8 +18.3
15 16.11 ЮВ 5 10 км 10/6 600 м
[St Ac trans]
+20.0 +17.1 83 +23 +24 комфорт 1014.4 1011.6
18 16.11 Ю 6 10 км 4/4 1500 м
[Sc]
+21.7 +16.7 73 +26 +30 душно 1012.5 1009.7
21 16.11 Ю 6 10 км 3/0
[Ac trans]
+21.3 +17.2 77 +25 +28 комфорт 1010.3 1007.5
00 17.11 ЮВ 5 8000 м дымка 3/3 1500 м
[St]
+19.2 +16.8 86 +21 +21 комфорт 1011.3 1008.5 +22.3
03 17.11 ЮВ 5 9000 м мгла 6/1 450 м
[St Ac trans]
+18.8 +16.4 86 +20 +20 1013.2 1010.4
06 17.11 Ю 3 8000 м дымка 8/3 120 м
[St Ac trans]
+18.3 +16.5 89 +19 +19 1012.4 1009.6
09 17.11 ЮВ 4 7000 м дымка 10/3 360 м
[St Ac trans]
+17.9 +16.3 90 +18 +18 1011.5 1009.7
12 17.11 ЮВ 4 6000 м дымка 10/10 240 м
[St]
+18.1 +16.5 90 +18 +18 1013.0 1010.2 +17.8
15 17.11 Ю 6 9000 м мгла 3/3 300 м
[St]
+20.0 +16.3 79 +22 +27 комфорт 1014.4 1011.6
18 17.11 Ю 6 9000 м мгла 3/3 750 м
[St]
+21.9 +16.5 71 +26 +31 душно 1012.6 1009.8
21 17.11 Ю 5 10 км 1/1 660 м
[Sc]
+21.0 +16.5 75 +25 +28 комфорт 1010.9 1008.1
00 18.11 ЮВ 5 10 км 1/1 600 м
[Sc]
+19.3 +16.4 83 +21 +21 комфорт 1012.3 1009.5 +22.2
03 18.11 ЮВ 4 10 км 6/6 600 м
[St]
+18.9 +16.5 86 +20 +20 1014.0 1011.2
06 18.11 ЮВ 4 8000 м дымка 10/6 600 м
[St As trans]
+18.4 +16.4 88 +19 +19 1013.2 1000.4
09 18.11 ЮВ 3 8000 м дымка 10/6 600 м
[St As op]
+18.0 +16.2 89 +18 +18 1012.1 1009.3
12 18.11 ЮВ 4 10 км 6/4 600 м
[Sc Ac trans]
+18.3 +16.7 90 +19 +19 1013.0 1010.2 +18.0
18 18.11 Ю 6 10 км 8/0
[Ac trans]
+20.6 +16.1 75 +24 +28 комфорт 1013.3 1010.5
21 18.11 Ю 5 10 км 5/0
[Ac trans]
+20.3 +16.6 79 +23 +26 комфорт 1011.4 1008.6
00 19.11 ЮВ 4 8000 м дымка 9/3 600 м
[St Ac trans]
+19.3 +16.4 83 +21 +21 комфорт 1013.4 1010.6 +21.7
03 19.11 ЮВ 3 9000 м дымка 10/3 750 м
[St Ac trans]
+19.2 +16.1 82 +21 +21 комфорт 1015.0 1012.2
06 19.11 ЮВ 2 8000 м дымка 8/0
[Ac trans]
+18.8 +15.9 83 +20 +20 1013.5 1010.7
09 19.11 ЮВ 2 6000 м дымка 3/0
[Ac trans]
+18.2 +16.4 89 +19 +19 1012.5 1009.7
12 19.11 ЮВ 4 9000 м дымка 10/3 600 м
[St Ac trans]
+18.3 +16.7 90 +19 +19 1014.0 1011.2 +17.7
15 19.11 Ю 6 10 км ясно +20.8 +16.7 77 +24 +31 комфорт 1014.0 1011.2
18 19.11 Ю 7 10 км ясно +21.6 +16.8 74 +26 +32 душно 1012.4 1009.6
21 19.11 Ю 4 10 км ясно +20.7 +17.0 79 +24 +29 комфорт 1011.0 1008.2
00 20.11 ЮВ 4 10 км 10/0
[Ac trans]
+19.4 +16.7 84 +21 +21 комфорт 1012.0 1009.2 +22.5
03 20.11 ЮВ 4 10 км 9/0
[Ac trans]
+19.1 +16.4 84 +21 +21 комфорт 1013.8 1011.0
06 20.11 ЮВ 3 10 км 8/0
[Ac trans]
+18.8 +16.4 86 +20 +20 1014.0 1011.2
09 20.11 ЮВ 3 10 км 6/0
[Ac trans]
+18.5 +16.7 89 +19 +19 1012.6 1009.8
12 20.11 ЮВ 3 8000 м дымка 10/4 240 м
[St As op]
+18.3 +17.0 92 +19 +19 1014.1 1011.3 +18.2
15 20.11 Ю 4 10 км 3/0
[Ac trans]
+19.2 +17.0 87 +21 +30 комфорт 1015.3 1012.5

 

Местоположение метеостанции Trujillo (Перу): широта -8.08 долгота -79.10 высота над уровнем моря 30 м.

В архиве по умолчанию представлена погода в Trujillo за последнюю неделю. Архивные данные за месяц целиком и за предыдущие месяцы, начиная с января 2011 года, Вы можете получить, выбрав интересующий диапазон дат из раскрывающегося списка и нажав кнопку "Ввод!".


*Определитесь, кто Вы:
робот инопланетянин человек

Внимание! Время в таблицах - всемирное. Для получения местного времени необходимо прибавить поправку, которая в Trujillo равна -5 ч.

Смотрите также архив погоды в соседних городах и на ближайших метеорологических станциях:

Погода в Cajamarca (Перу) (127 км)
Погода в Chimbote (Перу) (134 км)
Погода в Chiclayo (Перу) (164 км)
Погода в Anta (Перу) (217 км)
Погода в Chachapoyas (Перу) (251 км)
Погода в Juanjui (Перу) (282 км)
Погода в Tarapoto (Перу) (350 км)
Погода в Piura (Перу) (361 км)
Погода в Tingo Maria (Перу) (366 км)
Погода в Huanuco (Перу) (376 км)

Пояснения к столбцам:

Ветер - указаны скорость ветра в м/с - средняя за 10 мин, порывы в срок и между сроками (в фигурных скобках) и направление, откуда дует ветер: С - северный, СВ - северо-восточный, В - восточный, ЮВ - юго-восточный, Ю - южный, ЮЗ - юго-западный, З - западный, СЗ - северо-западный.
Видимость - горизонтальная дальность видимости в метрах или километрах. При видимости от 1 до 10 км при отсутствии осадков обычно наблюдается дымка, при ухудшении видимости до 1 км и менее - туман. В сухую погоду видимость может ухудшаться дымом, пылью или мглою.
Явления - указаны атмосферные явления, наблюдавшиеся в срок или в последний час перед сроком; фигурными скобками обозначены явления, наблюдавшиеся между сроками (за 1-3 часа до срока); квадратными скобками обозначены град или гололедные отложения с указанием их диаметра в мм.
Облачность - указаны через наклонную черту общая и нижняя облачность в баллах и высота нижней границы облаков в метрах; квадратными скобками обозначены формы облаков: Ci - перистые, Cs - перисто-слоистые, Cc - перисто-кучевые, Ac - высококучевые, As - высокослоистые, Sc - слоисто-кучевые, Ns - слоисто-дождевые, Cu - кучевые, Cb - кучево-дождевые. Подробнее классификацию облаков см. в Атласе облаков (PDF).
T - Температура воздуха - температура, измеренная на высоте 2 м над землей.
Td - Температура точки росы - температура, при понижении до которой содержащийся в воздухе водяной пар достигнет насыщения.
f - Относительная влажность воздуха - влажноcть воздуха, измеренная на высоте 2 м над землей.
Te - Эффективная температура - температура, которую ощущает одетый по сезону человек в тени. Характеристика душности погоды. При расчете учитывается влияние влажности воздуха и скорости ветра на теплоощущения человека.
Tes - Эффективная температура на солнце - температура, которую ощущает человек, с поправкой на солнечный нагрев. Характеристика знойности погоды. Зависит от высоты солнца над горизонтом, облачности и скорости ветра. Ночью, в пасмурную погоду, а также при ветре 12 м/с и более поправка равна нулю.
P - Атмосферное давление - приведенное к уровню моря атмосферное давление.
Po - Атмосферное давление - измеренное на уровне метеостанции атмосферное давление.
Tmin - Минимальная температура - минимум температуры воздуха на высоте 2 м над землей.
Tmax - Максимальная температура - максимум температуры воздуха на высоте 2 м над землей.
R - Количество осадков - Количество выпавших осадков за период времени, мм. При наведении курсора мыши на число - период времени, за который выпало указанное количество осадков.
R24 - Количество осадков - Количество выпавших осадков за 24 часа, мм.
S - Снежный покров - Высота снежного покрова, см. При наведении курсора мыши на число - состояние снежного покрова и степень покрытия местности в баллах.